Observations for Trim Market St
| Time | AQI | Temp °C | Hum % | Pres Pa | CO μg/m³ | H₂S μg/m³ | NO μg/m³ | NO₂ μg/m³ | O₃ μg/m³ | SO₂ μg/m³ | PM1 μg/m³ | PM2.5 μg/m³ | PM10 μg/m³ |
|---|---|---|---|---|---|---|---|---|---|---|---|---|---|
| Sunday 12 July 2026 | |||||||||||||
| 07:06 | 1 | 21.2 | 72 | 50,622 | 0.08 | 0 | 0 | 0 | 1.85 | 0 | 2.14 | 3.94 | 6.91 |
| 07:05 | 1 | 21.2 | 72 | 50,111 | 0.09 | 0 | 0.4 | 0 | 5.97 | 0 | 2.14 | 4.41 | 8.76 |
| 07:04 | 1 | 21.1 | 72 | 49,410 | 0.09 | 0 | 0 | 0 | 4.5 | 0 | 2.14 | 3.43 | 5.69 |
| 07:01 | 1 | 21 | 73 | 46,040 | 0.1 | 0 | 0 | 0.21 | 5.19 | 0 | 2.85 | 4.85 | 8.14 |
| 07:00 | 1 | 20.9 | 73 | 44,517 | 0.12 | 0 | 0 | 0.42 | 7 | 0 | 2.14 | 4.35 | 6.92 |
| 06:59 | 1 | 20.9 | 73 | 42,849 | 0.1 | 0 | 0 | 0.79 | 14.69 | 0 | 2.85 | 4.34 | 7.53 |
| 06:50 | 1 | 20.3 | 75 | 30,544 | 0.09 | 0 | 0 | 2.24 | 7.56 | 0 | 2.14 | 3.77 | 7.53 |
| 06:49 | 1 | 20.2 | 75 | 28,918 | 0.1 | 0 | 0.33 | 0.45 | 9.27 | 0 | 2.14 | 3.28 | 5.74 |
| 06:46 | 1 | 20.1 | 76 | 23,849 | 0.1 | 0 | 0 | 1.51 | 7.8 | 0 | 3.56 | 5.64 | 8.71 |
| 06:44 | 1 | 19.9 | 76 | 20,067 | 0.09 | 0 | 0 | 2.84 | 19.16 | 0 | 2.14 | 3.72 | 6.94 |
| 06:42 | 1 | 19.8 | 76 | 18,020 | 0.07 | 0 | 1.09 | 1.94 | 12.15 | 0 | 1.43 | 3.23 | 6.35 |
| 06:41 | 1 | 19.8 | 76 | 16,744 | 0.07 | 0 | 0 | 1.82 | 10.66 | 0 | 1.43 | 3.22 | 5.77 |
| 06:40 | 1 | 19.7 | 77 | 15,465 | 0.08 | 0 | 0 | 2.24 | 10.2 | 0 | 2.14 | 3.22 | 6.94 |
| 06:39 | 1 | 19.7 | 77 | 14,273 | 0.06 | 0 | 0.06 | 2.73 | 12.62 | 0 | 2.85 | 4.17 | 6.94 |
| 06:38 | 1 | 19.6 | 77 | 12,923 | 0.07 | 0 | 0 | 1.94 | 14.07 | 0 | 2.85 | 4.16 | 6.94 |
| 06:37 | 1 | 19.6 | 77 | 11,634 | 0.06 | 0 | 0 | 0.93 | 11.97 | 0 | 2.14 | 3.68 | 6.36 |
| 06:36 | 1 | 19.5 | 77 | 10,639 | 0.06 | 0 | 0 | 2.85 | 9.82 | 0 | 2.85 | 3.68 | 6.95 |
| 06:35 | 1 | 19.5 | 77 | 9,704 | 0.05 | 0 | 0 | 1.84 | 9.75 | 0 | 2.85 | 4.62 | 7.53 |
| 06:34 | 1 | 19.4 | 77 | 8,659 | 0.06 | 0 | 0 | 3.15 | 13.11 | 0 | 2.85 | 4.14 | 8.12 |
| 06:33 | 1 | 19.4 | 77 | 7,590 | 0.09 | 0 | 0 | 3.14 | 11.17 | 0 | 2.14 | 3.66 | 8.11 |